Tracking 17147 objects as of 4-July-2015
HD Live streaming from Space Station

COSMOS 2418 (GLONASS)

Track COSMOS 2418 (GLONASS) now!
COSMOS 2418 (GLONASS) is classified as:


NORAD ID: 28916
Int'l Code: 2005-050B
Perigee: 19,097.4 km
Apogee: 19,176.2 km
Inclination: 65.2 °
Period: 675.7 minutes
Semi major axis: 25507 km
RCS: 3.9905 m2 (large)
Launch date: December 25, 2005
Source: Commonwealth of Independent States (former USSR) (CIS)
SV:
Your satellite tracking list
Your tracking list is empty





NASA's NSSDC Master Catalog

Two Line Element Set (TLE):
1 28916U 05050B   15183.18071850 -.00000004  00000-0  00000+0 0  9998
2 28916 065.1903 090.0965 0015444 330.7444 204.8679 02.13104413 74077

Source of the keplerian elements: AFSPC

N2YO: 232